RH
2 2 2 2 2 2 2 2 2 2 2 2 2 2 2 2 2 1 1 1 3 5 7 11 15 16 14 9 5 3 4 5 7 8 8 10 9 11 14 17 21 22 21 20 23 20 17 20 12 39 83 86 85 88 86 90 86 88 98 98 86 86 93 85 85 91 87 87 89 94 97 87 85 87 82 80 85 83 72 67 69 76 74 62 56 51 43 43
2 1 2 2 1 2 2 2 2 2 2 1 2 2 1 2 2 2 2 1 1 2 4 7 10 14 16 14 9 4 3 4 6 7 7 8 9 10 13 15 19 20 21 21 20 16 15 18 13 31 78 91 85 87 86 88 85 89 98 93 88 93 94 87 86 94 95 90 86 90 95 90 86 85 82 84 86 86 81 72 74 76 64 58 58 48 40 42
2 2 2 2 1 2 2 2 2 2 2 1 2 2 2 2 1 2 1 2 1 1 1 3 6 10 14 16 14 8 4 3 3 6 7 7 9 9 11 14 16 17 18 17 14 14 13 17 14 23 68 93 86 86 87 86 86 88 94 94 94 93 92 90 88 94 93 84 84 87 87 89 88 83 80 83 83 84 85 74 73 73 56 55 59 44 38 41
3 3 3 3 2 2 2 2 2 2 2 2 3 3 3 3 3 3 2 2 1 1 1 1 3 5 9 13 16 14 7 4 3 3 6 7 8 8 10 12 14 16 15 15 14 15 13 15 15 17 58 93 86 84 88 89 89 87 92 97 96 90 93 95 88 91 83 73 84 86 83 86 84 81 76 76 77 79 83 74 70 67 51 51 53 40 36 38
3 3 3 4 3 3 3 3 3 3 3 2 3 4 4 5 5 5 4 3 2 1 2 1 1 2 6 9 13 17 12 10 6 3 4 6 8 8 10 11 13 15 14 15 14 16 15 14 15 15 51 91 89 83 86 87 84 85 91 93 93 91 97 95 88 91 78 70 85 88 86 80 72 73 68 72 82 78 75 69 66 64 52 48 47 37 34 32
3 3 3 4 4 4 4 4 5 4 4 4 4 4 4 5 5 5 5 5 4 2 1 1 2 1 3 5 9 14 15 15 10 5 4 5 7 8 9 10 12 14 14 15 13 16 14 13 15 13 45 89 90 81 85 82 73 80 89 86 88 93 98 93 89 91 76 72 86 89 83 68 59 65 61 67 80 72 63 58 57 59 54 50 44 35 34 32
3 3 3 4 4 5 5 5 5 5 6 5 5 5 5 5 6 6 5 5 5 4 2 1 1 1 1 3 6 10 15 16 13 9 5 4 6 7 9 10 12 14 14 15 13 15 12 13 15 13 47 88 86 79 81 70 61 75 87 86 88 93 96 94 92 86 72 75 86 84 72 57 54 59 57 59 62 59 55 50 49 52 52 50 41 35 36 34
4 4 3 4 4 5 5 6 6 6 6 6 6 6 6 6 6 7 6 5 5 4 4 3 2 1 1 1 4 7 12 16 15 13 8 4 4 6 8 9 11 13 14 15 14 13 11 13 11 16 59 89 82 80 74 61 63 75 84 92 93 88 93 96 87 77 73 81 87 78 62 53 55 59 59 56 53 52 51 45 43 47 50 48 39 37 39 34
4 4 4 4 5 5 6 6 6 6 6 6 7 7 7 7 7 7 6 5 5 4 4 3 2 1 1 1 2 5 9 15 17 15 12 6 3 5 6 8 11 12 14 15 14 14 11 12 11 25 71 89 79 80 69 58 66 72 82 97 91 83 94 94 79 75 76 80 86 78 59 50 55 65 65 55 51 49 47 45 42 45 49 45 38 38 37 33
5 4 5 5 5 6 6 6 7 6 6 6 6 6 6 6 6 5 4 4 4 3 3 3 4 2 2 1 2 6 8 13 18 17 15 9 3 4 5 7 9 10 14 15 16 15 10 12 11 23 63 82 76 76 64 55 63 73 84 95 87 84 95 89 78 83 79 74 85 84 69 56 57 76 75 56 53 48 45 46 41 46 48 43 39 36 35 34
5 4 4 5 5 6 7 7 7 7 7 6 5 5 4 4 4 3 3 2 2 2 2 2 3 3 2 1 2 6 6 11 18 17 16 12 4 3 5 6 7 10 12 15 18 15 11 12 11 21 54 77 76 68 60 59 66 76 84 91 88 82 90 93 85 82 76 74 85 90 85 74 71 88 79 52 51 50 46 46 41 46 48 42 40 36 35 35
5 5 4 5 5 6 7 7 7 7 6 6 5 4 3 3 2 2 2 2 2 2 2 2 3 3 3 2 2 3 4 10 18 18 16 15 7 2 4 5 6 9 10 16 19 16 14 9 14 41 64 77 75 57 54 65 70 76 85 95 93 77 82 95 89 76 74 80 87 91 94 90 89 93 75 50 51 54 49 46 42 45 47 43 41 38 35 34
6 5 4 5 5 6 7 7 7 7 6 6 5 4 4 3 2 2 2 2 2 2 2 2 2 2 3 3 1 2 4 9 16 18 17 18 11 3 3 4 5 8 9 16 20 19 16 8 21 57 73 75 71 51 50 64 72 80 84 90 94 84 81 86 85 76 72 82 90 92 97 100 98 88 67 51 52 54 49 47 43 42 47 44 41 40 36 34
6 6 5 5 5 6 7 7 7 7 6 6 5 5 4 3 3 2 2 3 3 3 3 3 3 3 3 3 2 2 4 9 16 18 21 24 17 6 4 4 4 7 9 15 20 19 16 10 18 49 72 74 64 49 49 59 75 89 82 79 87 86 83 82 82 77 72 84 91 90 96 101 96 78 60 52 52 54 48 46 45 41 45 46 42 42 39 35
6 6 5 5 5 5 6 7 6 6 6 6 5 5 4 4 4 3 4 4 3 4 3 4 4 3 3 3 3 2 4 10 15 20 26 31 25 12 5 5 4 6 9 13 18 18 16 11 12 37 70 72 56 49 54 65 82 90 79 76 78 78 85 84 77 74 75 85 90 90 96 102 98 77 59 54 54 54 50 46 46 43 43 46 44 44 43 40
5 5 5 5 5 5 6 6 6 6 6 5 4 4 4 4 5 5 7 8 9 6 4 6 5 4 7 5 2 2 6 11 15 21 30 36 32 19 8 5 4 4 8 12 19 19 14 10 12 36 67 67 52 48 56 72 85 83 75 73 74 77 85 85 78 74 72 77 89 93 90 93 93 76 62 59 56 58 58 50 47 46 44 45 46 46 46 44
5 5 5 5 5 5 5 6 6 6 6 5 4 4 5 7 10 12 12 14 15 10 6 6 3 5 10 9 10 9 7 13 16 22 33 38 36 26 12 6 4 4 7 11 19 19 13 10 11 33 63 64 51 49 56 70 78 77 74 73 76 80 82 83 83 78 70 72 85 87 79 82 85 74 68 64 56 61 67 58 50 49 47 47 49 48 47 47
5 5 5 5 5 5 5 6 6 6 5 4 6 7 10 15 19 21 17 16 16 15 12 7 7 17 20 19 23 17 8 15 21 23 32 37 35 30 19 9 4 4 6 11 20 19 14 10 10 33 62 63 49 46 52 60 68 70 68 73 78 80 79 80 81 79 76 78 84 83 77 80 84 80 78 71 60 61 70 64 53 51 50 51 52 50 49 50
5 5 5 5 5 5 5 6 6 6 4 5 11 15 18 22 27 26 16 11 12 19 25 20 22 33 31 23 21 17 11 19 26 28 34 36 33 31 24 14 5 5 6 11 19 19 15 12 17 39 60 62 49 41 46 56 66 67 65 72 76 73 75 80 84 84 83 84 86 85 85 84 83 85 84 79 71 69 78 72 56 53 53 52 53 51 51 51
5 5 4 5 5 5 6 6 6 5 4 9 17 23 24 23 32 30 15 11 15 22 30 30 30 32 31 26 22 18 14 23 35 40 41 36 30 28 26 20 10 7 8 12 19 19 17 16 21 38 55 61 51 40 42 49 61 67 65 71 74 73 77 82 88 88 82 83 82 80 88 86 78 81 83 83 83 82 86 77 57 52 52 51 54 52 53 53
5 5 4 5 5 5 6 7 7 5 7 16 22 27 26 22 29 30 21 25 30 32 34 33 32 32 33 33 30 24 22 37 49 49 47 39 30 26 25 24 18 13 11 15 22 19 19 20 18 32 51 58 52 44 39 40 54 64 63 66 70 72 76 80 87 87 83 84 81 76 84 90 84 81 81 80 81 81 84 78 58 50 53 52 53 55 57 58
5 5 4 5 5 4 6 8 7 6 13 23 27 28 28 24 25 27 28 35 37 35 35 33 33 34 34 34 33 25 27 44 51 49 49 40 32 29 26 24 21 18 14 17 23 20 21 21 18 33 51 54 50 45 36 36 53 65 66 66 64 65 69 73 79 82 85 85 86 85 86 94 94 81 76 78 78 77 82 81 62 49 53 53 51 54 58 60
4 5 4 5 5 4 7 9 7 11 19 27 30 28 26 23 25 27 29 35 36 33 33 32 31 33 33 33 31 24 29 43 47 50 49 38 36 32 24 23 22 20 16 15 19 20 21 18 23 41 53 54 51 42 33 33 42 53 65 69 67 68 68 74 76 69 75 78 81 95 93 94 97 81 74 78 78 80 83 88 75 53 50 53 51 53 56 59
4 4 4 5 5 4 7 9 9 15 24 29 30 28 23 22 25 25 27 32 34 31 31 30 30 31 30 31 31 28 33 41 44 48 45 38 39 31 24 26 24 21 17 14 15 19 20 20 32 46 49 52 49 38 34 32 30 34 48 63 74 79 70 75 81 69 77 82 77 92 93 87 91 81 77 78 75 79 83 90 88 63 50 55 55 54 56 58
3 3 4 4 4 5 7 10 12 17 26 30 30 27 24 26 26 22 26 30 29 28 28 27 27 27 28 32 33 29 32 39 41 45 42 39 40 33 32 30 22 21 18 16 17 19 23 29 38 44 46 52 46 36 34 31 30 30 35 45 60 72 65 65 79 78 83 85 74 80 82 77 83 78 75 76 70 71 76 85 89 73 57 56 57 56 57 59
3 3 3 4 4 5 7 12 15 18 26 29 29 27 26 29 28 24 30 29 23 23 25 24 22 23 25 31 35 29 30 37 37 40 40 39 41 38 36 30 22 26 25 20 19 20 29 35 36 38 45 53 45 36 34 30 31 31 33 38 41 54 59 61 79 80 71 71 69 71 74 75 83 80 69 69 71 71 75 83 85 81 71 59 56 57 57 58
3 2 3 3 4 5 8 15 19 20 26 28 28 27 26 29 27 27 34 28 18 20 23 22 21 21 22 26 32 31 31 33 31 37 38 37 42 39 35 33 27 29 30 25 20 24 36 40 35 37 44 49 45 37 34 32 32 31 35 39 32 37 48 56 69 69 57 61 68 72 74 70 73 78 67 65 75 77 79 83 80 83 81 69 60 57 57 58
3 2 3 3 4 5 10 20 22 20 25 28 26 26 27 28 24 26 32 25 19 22 24 22 20 19 20 21 27 31 33 31 30 39 41 38 42 39 35 35 29 28 31 25 21 27 37 39 37 39 41 42 43 38 34 33 31 31 35 36 31 35 46 52 54 54 52 56 61 71 77 63 59 76 75 68 76 77 73 76 76 78 80 78 72 61 57 58
2 3 3 3 4 6 13 23 23 21 25 26 25 25 26 25 23 25 27 22 22 25 23 22 20 19 20 20 25 30 32 32 32 40 45 41 43 41 36 35 31 32 32 22 21 30 36 37 38 39 37 38 40 37 37 37 32 31 37 41 41 41 47 51 48 52 56 50 49 66 75 58 54 75 81 71 70 71 69 69 72 72 72 78 80 70 62 60
3 3 3 4 4 8 18 25 23 24 26 25 24 25 22 22 26 28 25 22 25 25 22 22 21 21 21 19 23 28 30 30 33 42 46 44 43 41 39 38 34 35 33 23 23 34 38 37 38 37 35 35 37 38 39 39 34 33 42 52 54 53 53 52 54 61 59 47 44 61 71 58 51 68 81 69 57 65 76 75 72 69 66 73 81 78 70 62
3 3 4 4 4 12 24 26 25 26 25 24 26 25 24 25 26 25 23 24 26 25 23 24 23 21 20 20 21 26 27 27 32 39 44 44 42 41 39 37 33 31 32 27 25 35 38 36 37 37 36 34 34 37 37 38 38 36 43 51 53 59 59 52 60 65 52 43 47 58 67 62 51 57 70 62 48 62 80 75 67 65 61 67 77 80 74 66
3 4 4 3 8 19 27 28 27 28 26 26 26 24 28 30 24 22 24 25 25 24 24 25 24 22 21 22 23 24 25 26 28 31 35 37 37 37 34 32 30 28 28 25 23 30 33 33 35 35 36 36 32 32 33 37 41 38 41 46 48 60 62 51 54 54 41 42 51 55 61 61 55 56 64 61 49 54 68 67 61 61 58 61 68 74 74 67
3 4 4 7 16 25 29 29 28 28 27 27 25 24 28 27 23 26 27 24 25 25 25 25 27 26 22 22 23 24 24 25 26 28 31 34 34 35 35 34 33 30 26 23 22 26 27 28 33 34 34 35 31 29 28 34 40 38 40 43 45 59 65 53 45 42 40 44 49 58 63 57 54 58 63 64 54 48 58 64 60 58 59 60 61 67 72 66
3 4 7 15 23 27 30 30 29 28 26 25 26 27 27 24 25 29 27 25 27 27 27 26 26 27 23 21 23 24 24 26 28 28 29 33 32 31 34 36 35 32 28 25 24 24 22 22 29 31 30 32 31 28 24 27 33 36 38 40 42 52 59 53 42 39 42 42 47 59 56 45 51 59 57 56 50 45 51 59 58 57 60 62 61 64 71 71
5 9 15 22 26 29 31 30 28 27 22 23 27 26 25 26 27 28 26 27 28 28 28 27 26 26 24 24 25 25 26 28 30 29 28 31 30 27 28 31 33 33 29 26 25 23 20 19 25 28 28 29 29 28 26 24 25 29 33 37 38 39 45 47 43 41 41 40 47 56 47 43 56 61 50 45 45 43 46 52 54 54 58 62 64 62 68 76
11 16 22 25 28 31 32 30 27 24 22 25 27 25 28 30 29 29 28 29 29 29 28 26 25 24 22 26 29 29 29 30 33 32 28 29 29 27 28 30 32 33 30 26 24 23 20 18 22 25 26 27 27 26 26 23 22 23 25 31 35 33 37 40 39 42 44 39 41 47 44 41 50 54 47 41 42 41 43 49 52 53 55 60 63 61 64 74
18 21 24 27 30 32 32 30 28 26 26 29 29 28 33 33 30 31 31 29 28 28 27 25 24 23 23 24 27 30 32 32 35 34 30 31 31 29 30 30 30 31 32 30 25 25 23 18 21 24 23 25 24 23 25 24 21 21 22 25 33 37 38 37 36 39 41 37 36 41 41 35 37 50 54 49 46 42 41 49 53 52 53 55 58 59 61 69
22 23 27 29 31 31 31 30 28 28 29 31 31 31 34 33 30 30 31 29 29 29 28 26 25 25 25 23 24 29 31 31 33 33 30 32 32 30 30 30 29 28 31 31 28 28 26 20 19 22 21 22 22 20 22 23 21 22 22 21 27 36 36 36 38 38 37 35 33 36 38 32 31 42 56 63 59 45 40 47 51 51 52 53 55 57 57 64
23 27 32 31 30 31 31 28 26 27 27 28 31 30 32 34 31 30 31 30 30 29 28 28 28 28 27 25 25 29 30 30 32 31 30 32 32 30 30 30 30 28 27 30 30 29 27 22 19 22 22 21 22 19 17 20 22 22 23 21 25 29 28 29 32 32 33 33 31 32 31 28 29 39 57 66 56 41 38 44 48 51 54 53 56 58 56 57
27 33 35 30 31 31 26 23 25 28 27 26 29 30 32 34 32 31 31 31 31 31 30 30 30 28 29 28 27 29 30 31 32 31 30 32 32 31 30 31 31 29 26 27 32 32 29 25 21 23 25 21 20 19 16 17 20 21 21 22 25 26 23 27 28 26 28 29 29 29 24 29 39 42 46 47 38 35 37 40 46 52 55 54 55 58 57 55
28 35 35 29 31 29 21 24 28 27 26 26 27 28 29 32 32 31 31 31 32 32 32 33 32 31 32 30 30 31 30 29 29 29 30 32 33 33 32 32 30 29 29 28 33 36 34 30 24 22 24 21 18 18 17 17 18 18 19 18 21 22 21 25 27 26 29 29 29 26 22 36 45 36 31 31 31 37 36 37 47 53 55 56 52 55 57 53
29 35 34 29 31 26 22 30 31 27 27 26 25 25 24 26 28 28 29 31 33 33 34 35 35 36 35 33 33 33 31 30 29 29 30 31 33 34 34 33 30 30 31 32 35 35 33 34 30 26 23 20 20 20 19 20 20 18 17 16 19 19 19 23 25 26 29 27 28 27 27 41 42 27 28 32 32 39 37 37 49 53 54 57 52 52 55 52
37 39 33 29 29 24 25 31 29 27 28 23 22 23 22 25 28 27 27 31 33 33 34 36 36 38 37 35 36 35 31 32 33 32 32 33 32 32 32 31 31 31 31 35 39 35 33 37 35 30 27 25 25 22 20 22 22 19 17 16 18 17 17 18 17 20 26 26 30 28 26 40 41 26 28 33 32 39 41 42 51 55 54 55 53 52 53 54
33 34 30 29 29 26 27 30 25 25 27 25 24 24 24 27 27 27 30 31 30 31 34 37 37 37 37 35 36 36 32 33 35 34 35 35 32 30 29 29 30 33 33 34 38 38 41 46 40 30 26 25 25 23 21 23 23 20 18 18 20 20 18 17 17 22 24 24 28 25 23 38 39 25 27 32 31 38 44 46 50 53 54 55 56 57 52 51
25 28 29 29 29 28 29 29 25 25 27 27 27 26 27 28 25 23 26 26 26 29 35 37 36 37 38 37 37 36 34 34 34 35 35 35 33 29 28 29 30 32 33 30 33 37 42 48 47 36 27 23 25 26 24 23 22 21 23 23 22 21 21 20 21 23 23 24 26 23 27 41 36 22 25 29 29 35 40 44 49 52 56 56 58 62 58 51
26 31 33 29 26 27 27 26 23 25 27 27 27 27 28 30 28 24 24 27 27 29 34 35 35 38 39 38 38 36 35 34 34 38 37 35 35 31 28 30 30 30 31 29 33 41 45 48 50 44 34 29 34 35 29 25 24 25 28 30 26 23 25 26 21 19 21 24 28 26 30 41 36 23 24 27 29 33 31 36 49 54 56 58 59 64 66 60
27 34 35 30 26 27 26 24 23 25 26 26 27 28 27 30 30 27 28 30 26 26 32 35 35 40 42 40 39 38 37 36 36 38 38 35 36 34 29 30 30 29 30 30 35 44 49 46 44 44 39 38 42 40 36 35 34 32 34 34 30 26 26 26 23 25 26 23 27 29 25 34 38 29 25 28 29 30 26 31 49 58 58 61 62 64 69 69
28 34 31 27 28 29 27 25 25 25 25 26 26 26 28 30 30 30 31 29 25 23 31 38 36 37 40 39 39 41 40 39 38 36 36 36 36 34 31 30 29 29 30 32 35 41 45 43 41 40 39 42 47 45 44 46 46 46 45 42 40 35 30 30 32 38 40 33 34 37 31 43 56 41 25 27 31 34 30 25 41 60 63 64 68 68 70 74
21 27 26 26 29 28 26 24 23 24 26 27 26 27 30 30 29 31 31 33 33 24 24 38 40 34 35 36 37 43 42 40 41 39 36 36 34 34 34 31 30 31 32 33 34 35 42 44 40 39 38 40 47 48 48 50 48 51 54 52 53 50 43 47 47 41 38 37 42 45 40 49 61 44 26 27 34 43 46 41 49 64 68 71 75 75 77 81
16 22 25 28 27 24 24 24 23 26 28 26 28 31 30 29 31 33 29 32 38 29 24 36 35 26 29 32 34 41 42 39 42 41 37 37 36 36 36 33 31 32 32 34 35 34 39 42 37 38 38 37 41 45 45 46 45 49 55 57 61 61 52 48 45 38 42 48 45 38 39 48 49 34 27 29 33 45 60 65 70 73 73 77 81 82 86 86
15 21 25 31 33 28 25 25 25 28 30 28 30 32 30 29 33 36 30 25 27 30 32 34 29 22 24 28 33 37 37 38 41 39 38 38 37 37 37 34 32 31 30 32 34 34 39 42 39 37 37 33 34 37 37 39 41 44 50 53 60 67 61 50 44 42 48 55 46 39 55 67 50 29 27 31 36 53 70 77 81 81 80 84 85 86 91 88
11 19 25 31 37 35 28 27 28 28 29 31 31 31 32 33 34 36 36 28 20 20 24 23 22 28 33 35 37 36 35 39 40 38 39 39 37 36 36 34 33 32 28 27 32 36 38 44 45 41 37 33 33 36 35 34 35 40 49 53 59 71 73 67 65 57 48 54 61 64 73 66 39 26 32 34 42 65 83 88 88 86 85 89 90 89 93 93
Wind_Speed
10 10 10 10 10 10 9 8 7 7 7 7 7 6 6 6 7 8 10 11 13 15 17 19 19 19 19 18 18 17 17 17 17 16 16 17 18 20 21 22 21 19 17 15 14 12 10 7 5 4 6 6 6 4 2 1 2 2 3 3 3 5 4 2 7 10 11 15 18 19 18 17 18 19 18 18 16 14 15 16 15 12 14 18 18 18 19 19
9 9 9 9 9 10 9 9 9 8 7 7 6 6 6 6 6 7 8 10 11 13 15 17 19 20 20 19 18 18 17 17 18 18 18 18 18 19 21 22 21 20 18 16 14 11 8 6 5 4 5 7 6 4 2 1 1 1 2 3 3 5 5 1 8 12 14 15 17 19 19 17 17 17 18 17 17 16 15 16 14 12 17 20 19 19 18 19
8 8 8 8 8 8 8 9 9 9 8 7 6 5 5 5 5 6 7 8 10 12 13 15 17 20 20 20 19 18 18 17 18 19 19 19 18 19 20 21 21 21 19 16 14 11 9 9 8 7 7 7 7 5 2 1 1 1 0 2 5 5 5 3 10 15 17 17 17 19 19 17 16 16 17 16 16 16 14 15 14 14 19 22 20 19 18 19
9 8 8 8 7 7 7 8 8 8 8 7 6 5 4 4 5 6 6 6 7 10 12 13 15 18 20 21 19 19 18 16 18 20 20 20 18 18 20 19 19 20 19 17 15 14 14 12 11 10 8 8 7 5 3 1 1 0 0 2 6 5 3 3 10 16 20 19 17 19 18 16 15 14 15 15 15 16 14 12 11 13 18 21 20 19 18 18
10 10 9 8 7 7 7 7 7 7 7 6 5 5 4 4 4 5 6 6 6 7 9 11 13 16 19 20 19 19 17 13 17 20 21 21 19 18 19 18 18 19 18 18 17 17 16 14 12 11 9 9 8 5 5 3 1 1 2 4 7 6 4 6 10 17 23 21 17 18 17 15 15 14 15 14 13 14 16 14 11 13 17 20 20 19 18 18
11 11 10 9 8 8 8 7 7 7 7 7 6 6 5 5 5 5 5 6 6 6 6 9 11 14 17 19 19 19 17 13 17 20 21 22 19 18 18 18 19 19 18 18 18 18 17 15 14 12 9 9 8 7 5 3 1 1 4 6 8 6 5 8 13 21 24 21 17 17 16 17 18 17 17 15 13 13 17 16 14 15 17 20 20 19 18 18
11 11 12 11 10 9 9 8 8 7 6 7 7 7 7 7 7 6 6 6 6 6 6 6 9 12 15 17 18 18 18 19 19 18 20 22 20 19 19 19 20 19 19 19 19 19 17 15 15 13 9 8 9 8 6 3 1 1 4 7 7 3 5 9 18 25 24 20 17 16 17 20 20 19 18 16 15 16 17 17 14 16 19 20 20 19 18 18
11 11 11 11 11 10 10 9 8 7 6 6 7 8 9 9 9 8 7 6 6 7 7 6 7 11 13 15 16 16 18 22 20 17 19 21 21 20 20 20 20 19 20 19 19 19 17 15 15 13 9 8 10 11 8 2 2 3 4 6 5 1 6 14 24 26 23 20 17 16 18 21 20 17 17 17 17 18 17 15 14 17 20 22 21 20 19 20
11 11 11 11 11 10 10 9 8 7 6 6 6 7 8 9 9 9 8 8 7 7 8 7 6 9 11 13 14 13 17 21 21 18 18 20 22 21 21 20 19 20 19 20 20 18 17 15 14 13 10 11 11 12 9 5 2 4 2 2 3 5 11 20 26 25 23 20 17 17 19 21 18 14 15 18 18 19 17 14 16 19 21 22 22 20 20 21
11 11 10 10 10 10 9 9 8 7 6 6 5 6 7 8 8 9 9 9 9 8 9 8 7 7 9 12 11 11 16 20 20 20 18 20 22 22 22 21 20 20 19 20 19 18 18 15 15 15 13 13 12 12 10 7 2 2 1 2 6 7 16 25 25 25 23 20 18 17 18 19 17 11 13 20 20 19 16 14 18 20 21 23 22 19 19 21
10 10 10 10 9 9 9 9 8 7 7 6 6 6 6 7 8 9 10 10 10 10 9 9 9 8 8 10 10 12 16 19 20 21 18 18 21 22 22 22 21 20 19 19 18 19 20 17 17 15 10 12 12 9 9 8 4 3 3 4 8 9 18 25 23 24 22 19 18 17 16 17 16 10 13 20 21 19 15 14 19 21 22 23 22 20 19 20
9 10 10 10 9 9 9 9 9 8 8 7 7 7 7 7 8 9 10 11 11 12 10 9 9 9 8 9 12 14 16 18 20 20 19 18 19 22 23 23 23 22 20 18 18 19 19 18 19 16 9 12 11 5 6 8 5 5 4 4 8 12 17 22 21 22 20 17 18 17 15 15 13 11 15 20 21 18 15 16 20 22 23 23 22 20 19 19
9 9 9 9 9 9 9 9 9 9 9 8 8 8 8 8 9 9 11 12 12 13 12 9 8 9 9 8 11 14 14 17 19 19 18 17 18 21 22 24 24 23 22 20 19 20 19 19 21 18 14 13 11 6 5 8 6 5 5 4 8 12 14 18 19 21 19 15 16 16 15 14 12 13 17 20 20 18 17 18 20 22 23 23 22 20 18 19
8 8 8 8 9 9 9 9 10 10 9 9 8 9 9 9 9 9 10 11 12 12 11 8 6 9 9 8 9 12 14 16 18 18 17 15 16 19 21 23 24 24 24 23 22 21 19 19 21 21 17 14 14 9 4 7 6 6 6 6 8 9 12 17 17 19 18 15 16 15 13 14 13 16 20 21 19 18 18 20 20 21 23 22 22 20 18 18
8 8 8 8 9 9 9 10 10 10 10 10 9 9 9 8 8 9 9 10 10 10 9 6 5 7 7 6 8 11 14 16 17 17 15 14 15 17 19 21 23 24 24 24 23 21 21 20 21 20 15 14 16 9 5 8 8 8 7 7 8 6 11 16 17 19 16 13 16 14 12 14 14 17 21 21 20 17 17 20 21 21 22 22 22 20 18 18
8 7 8 9 9 9 10 10 11 11 11 11 10 9 8 7 8 8 9 9 9 9 7 5 3 5 3 4 7 10 14 16 17 17 15 13 14 16 18 19 21 23 24 23 22 20 21 22 22 20 14 14 15 9 9 11 9 9 8 7 8 7 11 15 16 19 16 14 17 14 11 15 15 18 21 21 21 19 17 19 21 21 22 22 22 21 19 19
8 7 8 9 9 10 10 11 11 11 10 10 8 8 7 7 8 10 11 11 10 8 6 4 1 2 1 3 5 9 13 15 16 16 14 13 14 14 16 18 19 21 22 22 20 19 21 23 24 23 19 15 13 11 13 12 10 11 8 7 8 7 11 14 16 19 18 16 17 15 13 15 16 18 20 20 21 20 17 18 21 22 22 22 22 22 21 19
8 8 8 8 9 10 11 11 11 10 9 8 7 7 8 8 10 12 13 12 8 7 6 4 4 4 1 2 4 8 12 13 14 15 14 14 14 13 15 17 18 19 20 20 19 19 21 23 23 20 18 15 14 15 14 11 11 12 9 8 8 7 8 11 14 19 19 18 18 16 15 16 17 18 19 20 21 20 18 17 21 22 22 22 22 22 22 20
8 8 8 8 9 10 11 11 10 9 7 6 7 7 8 8 10 12 13 10 6 7 6 4 6 5 2 1 2 6 9 12 12 12 13 14 13 12 13 15 17 17 18 18 18 20 21 22 21 17 18 19 17 17 11 6 7 10 9 7 8 9 7 8 10 15 18 16 17 17 13 14 17 18 18 19 21 20 18 19 22 23 23 23 23 23 22 21
8 8 8 8 9 9 10 10 10 8 6 6 7 8 8 7 9 12 11 12 11 9 8 6 6 5 2 3 1 3 7 10 11 10 11 12 12 12 11 13 15 16 16 15 16 21 21 20 21 19 20 21 18 15 9 4 4 8 9 7 9 9 5 7 8 10 16 14 15 17 12 11 15 17 17 17 19 20 19 20 23 25 24 24 24 23 22 21
8 8 8 9 9 9 9 9 9 7 6 6 7 10 11 10 11 11 11 13 12 11 10 8 8 7 6 5 3 1 7 11 10 10 9 10 10 9 10 12 13 14 15 13 14 21 20 18 21 19 18 18 17 14 9 6 5 8 9 7 12 10 1 4 6 5 12 11 11 14 11 10 13 14 16 17 17 18 19 20 24 26 25 24 24 23 22 21
7 7 8 8 9 8 8 8 7 6 6 7 8 11 11 10 11 10 10 11 10 10 8 8 8 7 7 6 4 3 9 12 11 10 8 7 8 8 10 12 12 12 15 16 14 19 19 18 20 19 18 17 17 16 11 7 6 9 11 8 12 13 5 5 6 4 8 8 8 10 11 11 12 13 14 16 16 15 16 20 24 27 26 25 24 24 23 22
7 7 8 8 8 8 7 7 6 5 6 8 9 11 10 9 9 9 10 9 6 6 7 7 7 7 7 7 5 6 10 10 11 10 7 6 7 8 10 12 12 11 15 17 15 17 18 17 19 20 22 19 17 17 13 9 8 8 11 10 11 12 8 5 6 7 7 8 8 9 9 9 10 13 15 15 16 16 16 19 23 27 27 26 25 24 23 23
6 7 7 7 7 7 6 6 5 4 7 7 8 9 9 9 8 7 8 8 5 4 5 7 6 7 8 7 5 8 10 10 10 8 6 7 6 6 9 11 12 11 14 16 15 16 14 14 17 21 23 19 14 15 13 11 9 7 8 9 10 11 9 5 5 7 7 7 8 8 8 10 11 13 15 16 16 18 19 19 23 27 28 27 26 25 24 23
6 6 7 6 6 6 4 4 4 3 6 6 7 7 7 8 8 8 8 6 6 4 3 7 5 6 8 8 7 7 9 10 10 7 6 7 6 5 7 11 11 9 13 16 15 15 13 15 18 19 21 19 14 13 13 11 9 8 7 6 8 9 9 7 5 6 7 7 9 9 8 9 11 13 14 17 18 20 21 21 23 27 29 29 28 27 26 25
5 6 6 6 5 5 3 3 2 3 5 5 6 4 4 5 5 8 7 4 6 5 4 5 3 2 5 8 9 8 8 10 10 6 7 8 7 6 6 9 10 9 13 15 14 13 11 15 17 17 20 19 15 13 14 13 8 6 7 7 7 7 8 7 6 7 8 5 6 11 10 5 8 13 15 17 18 20 21 22 25 27 28 29 29 28 27 26
5 5 5 5 4 4 2 2 2 3 4 4 4 2 3 5 4 5 3 2 5 7 6 5 3 1 2 5 7 5 4 9 9 5 7 9 6 5 5 7 8 9 12 13 13 13 9 10 14 18 19 19 17 14 15 16 10 5 7 8 6 5 6 6 6 8 6 3 3 10 12 6 4 9 13 15 16 18 21 23 26 28 28 29 29 29 28 27
5 5 4 4 4 3 1 2 3 4 4 4 4 2 3 4 6 5 2 1 6 7 7 5 2 2 2 3 4 2 3 6 7 6 8 9 6 5 5 6 7 9 12 14 12 10 9 10 13 19 19 19 18 13 14 18 12 7 9 9 6 5 5 6 8 8 5 5 6 9 11 7 3 7 9 13 17 19 21 24 28 30 29 28 29 30 29 28
5 4 4 4 3 2 1 3 4 5 4 4 4 4 3 2 4 3 2 3 6 6 6 4 2 3 2 2 3 3 5 5 4 7 8 8 8 6 5 6 6 8 11 15 10 5 10 13 11 16 19 18 17 12 15 20 15 11 10 8 6 5 6 6 8 8 6 8 8 10 13 8 4 8 9 11 16 19 20 22 27 31 30 28 29 30 30 30
4 4 3 3 2 1 2 4 6 6 5 6 7 6 4 3 3 3 1 5 6 6 6 4 3 2 1 2 3 4 6 4 3 7 8 7 7 5 4 6 7 7 8 14 12 3 9 16 14 14 14 15 15 12 14 18 15 12 9 7 6 4 4 6 6 6 7 8 6 9 13 9 4 7 9 11 10 13 17 20 24 30 32 29 29 30 31 31
3 3 3 2 1 1 4 6 7 6 5 6 7 7 5 4 3 4 3 4 4 6 6 5 4 2 2 2 5 6 6 4 4 7 8 8 8 6 5 6 7 8 7 12 14 6 8 13 14 15 13 11 13 13 14 14 14 13 9 9 7 2 2 6 6 6 8 6 4 6 10 10 7 5 5 7 5 6 11 13 16 26 33 31 29 30 31 31
3 2 2 1 1 3 6 7 6 5 4 4 4 7 4 1 2 4 4 3 2 5 5 3 4 2 4 4 5 6 5 5 4 6 7 8 10 9 8 7 8 10 9 12 15 11 11 12 12 14 14 14 12 12 15 15 15 15 13 14 10 0 4 8 7 7 8 5 4 4 8 9 8 5 4 5 4 4 7 7 8 17 29 32 30 29 30 30
2 2 1 1 3 5 7 7 5 3 3 2 2 5 2 3 3 4 4 4 3 4 3 3 4 2 3 4 5 5 4 4 4 5 7 8 9 9 8 5 6 8 8 11 14 12 13 14 14 13 14 18 17 14 16 17 18 20 18 18 15 6 4 7 7 7 8 6 4 4 6 7 6 7 9 8 7 6 6 8 9 12 22 29 29 28 29 31
2 1 2 3 4 6 7 5 4 3 3 3 1 1 2 2 3 2 3 5 3 3 3 3 3 2 2 2 5 5 4 4 5 5 6 8 9 9 8 5 6 7 6 8 11 10 12 14 17 19 16 18 22 17 14 15 19 22 19 18 19 15 9 7 6 6 8 7 8 8 6 5 5 7 8 7 6 4 4 8 12 13 19 26 29 29 30 31
3 3 4 5 5 7 6 4 3 2 4 5 1 2 1 1 2 2 3 4 4 4 2 1 2 1 2 3 4 6 4 4 6 6 6 7 8 8 7 5 6 7 7 8 9 9 11 9 11 19 18 17 23 21 13 12 16 20 20 19 21 20 16 12 9 9 11 7 7 9 7 4 4 6 5 2 3 3 3 7 13 15 19 25 29 32 32 32
4 4 4 5 6 6 5 4 3 3 6 6 1 0 2 3 2 3 3 3 3 4 3 2 1 1 1 3 2 4 4 3 6 6 5 7 7 4 5 4 5 7 7 9 7 7 11 9 8 14 17 17 20 21 19 15 13 17 22 23 21 17 16 15 12 11 12 8 6 10 10 8 6 7 7 5 4 5 4 7 13 15 18 24 29 33 35 33
4 4 4 6 6 6 5 4 3 3 6 4 1 3 4 2 3 3 3 4 3 3 3 3 2 1 0 2 2 2 3 3 5 5 5 7 6 4 3 3 3 6 7 8 7 6 8 9 9 12 15 18 19 19 22 20 13 13 19 22 19 14 14 15 11 10 11 8 6 10 12 11 10 8 6 6 6 6 4 8 14 15 16 21 28 35 37 33
4 4 5 6 7 6 5 4 3 2 4 3 3 5 4 2 3 3 3 5 4 3 3 3 1 1 1 1 2 2 4 3 4 4 4 5 5 4 3 2 2 3 6 8 7 5 7 8 9 11 13 17 20 19 22 24 20 14 13 17 20 17 16 17 12 9 9 8 7 9 12 13 12 8 5 5 6 5 4 6 13 15 13 18 27 36 38 34
4 5 5 7 8 7 6 4 2 2 3 3 4 4 4 3 3 4 4 5 5 4 3 2 0 1 1 0 1 3 4 4 4 5 4 4 5 5 4 4 3 2 4 8 6 4 7 9 7 10 11 15 20 22 23 24 24 19 12 14 20 18 17 19 19 14 10 7 7 9 11 11 11 9 8 10 10 9 7 5 9 13 12 14 22 32 39 38
5 5 5 8 8 7 6 4 3 3 3 3 4 3 4 4 3 5 6 5 4 4 4 2 0 0 0 1 2 3 2 3 4 3 4 5 4 4 3 3 3 4 6 5 5 2 5 10 7 9 13 16 20 24 24 23 25 25 19 17 20 19 16 16 19 20 15 9 6 8 8 8 9 11 11 13 14 14 10 5 6 13 13 12 16 26 38 41
7 5 7 9 8 8 6 4 3 3 3 3 4 3 3 3 2 4 6 5 3 4 4 3 2 1 0 1 2 3 2 3 3 2 3 6 5 3 4 3 1 4 5 2 3 2 4 9 9 8 13 17 19 22 21 20 22 26 23 20 20 20 18 13 14 17 17 12 8 8 7 4 6 8 10 12 13 13 11 6 7 12 13 13 17 23 33 39
7 4 8 9 8 8 5 2 2 2 2 3 3 3 3 2 2 3 4 4 2 3 3 3 3 3 1 0 1 3 3 2 3 4 3 5 6 5 5 7 6 3 3 0 3 5 4 7 10 10 11 11 13 19 21 18 19 22 23 21 19 20 21 17 14 14 16 16 13 11 8 4 4 7 8 10 11 11 9 6 9 13 13 16 20 24 31 37
8 8 10 10 8 8 5 2 3 3 2 3 4 3 3 2 3 3 3 1 0 2 2 2 2 2 2 1 2 2 3 3 3 5 5 5 5 7 8 9 9 6 3 0 3 5 4 6 10 11 10 7 8 16 21 18 17 20 22 21 19 20 22 22 18 15 15 17 15 12 9 8 9 10 8 9 9 9 7 6 11 15 15 18 22 23 26 32
13 12 10 9 9 8 6 3 4 4 3 3 4 3 3 1 2 4 3 2 3 1 1 1 1 1 2 2 2 2 3 3 3 5 6 5 4 6 8 9 8 6 5 1 6 6 4 5 9 11 11 10 11 14 19 21 19 19 20 21 19 17 17 19 16 13 14 17 18 16 11 9 12 11 9 10 9 8 5 5 11 14 15 20 24 22 20 21
14 12 11 11 10 9 7 6 5 4 4 5 4 3 2 1 3 4 4 1 3 2 1 1 2 1 1 2 2 1 3 3 4 5 5 3 3 5 5 6 7 6 8 5 8 6 3 3 6 10 10 10 9 9 15 21 22 19 16 18 22 19 15 15 15 13 13 14 16 18 12 7 10 12 11 11 10 7 5 6 9 14 15 19 23 23 21 19
13 10 10 11 11 10 9 8 8 6 5 6 5 4 3 2 3 4 5 2 2 2 2 3 2 1 0 1 1 1 2 3 4 5 5 3 3 4 3 5 8 8 9 9 5 5 3 2 2 3 5 4 3 6 14 19 18 17 15 16 22 22 17 15 17 17 16 14 15 19 15 8 9 12 12 13 12 9 8 12 10 13 15 18 21 22 23 22
13 10 10 10 10 10 9 7 8 8 6 6 6 5 4 3 3 4 4 3 2 2 3 3 2 1 1 2 2 1 2 3 4 4 5 3 3 3 2 3 6 7 9 11 7 4 4 1 5 5 4 5 5 8 13 15 12 12 13 14 18 23 21 18 17 15 13 13 13 16 18 13 13 15 15 15 15 16 13 14 13 14 16 17 19 19 21 23
14 14 14 13 9 8 9 8 8 8 6 6 7 6 4 4 3 2 3 4 4 3 3 3 3 3 3 3 3 2 2 3 4 5 5 3 2 2 2 1 2 5 7 10 10 5 4 2 3 7 8 9 8 9 11 11 10 9 9 10 12 17 19 18 16 13 10 12 10 9 13 12 11 16 17 15 16 19 19 16 14 15 16 16 17 17 18 20
16 15 15 15 13 10 10 10 8 7 7 6 6 6 5 4 4 3 4 4 4 4 3 4 6 7 7 7 4 4 4 4 4 5 5 3 2 2 2 2 2 3 6 8 10 9 7 4 5 7 9 10 10 10 11 10 11 11 9 8 8 10 13 13 13 15 13 14 11 7 9 12 12 16 17 13 13 18 21 20 17 18 18 17 18 18 18 19
15 16 15 15 16 14 11 10 8 8 8 7 5 6 6 4 4 4 5 3 3 3 2 4 7 8 9 9 7 6 7 6 6 6 5 4 2 2 2 3 2 3 6 8 10 10 8 6 6 6 7 9 10 10 10 10 12 13 12 10 8 7 11 13 13 15 12 10 13 11 9 10 13 17 17 13 12 16 20 21 21 21 20 19 19 18 19 20
13 15 15 13 14 15 13 11 10 9 8 8 7 6 5 5 5 4 5 4 1 2 2 4 5 5 5 5 6 8 10 9 8 8 7 5 4 3 3 3 2 1 5 9 10 11 10 8 6 5 6 8 8 7 7 9 10 13 12 10 9 7 7 10 11 12 10 8 10 10 6 6 12 18 18 14 11 14 19 21 21 21 20 19 18 18 18 18
12 14 15 14 14 14 13 12 11 10 8 9 8 6 5 6 5 3 3 5 3 1 3 4 3 2 1 2 6 9 10 9 9 8 7 5 5 5 4 5 4 2 3 7 9 12 13 10 9 9 7 7 6 3 1 8 9 7 11 10 11 10 7 6 6 6 10 9 7 7 6 7 12 15 13 11 9 14 19 19 18 19 19 18 17 16 15 14
Wind_Direction
357 355 354 353 352 351 348 346 342 337 332 327 322 314 304 295 285 273 263 256 250 244 240 239 238 237 234 229 225 222 222 223 224 221 220 220 216 214 213 213 214 217 217 215 217 223 222 213 198 191 200 195 183 187 194 75 39 38 7 331 330 343 349 106 159 169 170 167 154 148 150 149 151 152 155 152 152 162 157 152 156 157 154 160 165 159 152 147
2 359 357 355 353 351 350 348 346 346 346 344 338 329 322 314 299 284 272 264 258 251 244 239 238 238 237 233 228 224 221 220 221 221 223 222 218 215 213 212 213 216 217 215 217 220 218 213 200 196 201 196 181 176 192 136 70 54 1 331 340 338 326 211 178 174 166 169 159 152 154 153 154 154 156 156 156 161 159 156 160 164 156 156 162 160 153 146
14 9 4 359 354 351 349 346 345 345 348 353 356 355 353 340 324 307 290 275 265 258 252 243 238 237 237 235 230 227 223 220 220 220 223 222 218 216 212 211 213 214 215 212 211 210 208 202 195 196 199 199 186 178 203 156 77 40 21 322 323 327 316 249 188 179 168 168 162 156 159 157 159 160 162 163 160 159 160 164 167 170 159 153 162 160 151 149
24 21 15 6 356 349 344 340 338 337 342 347 353 1 8 4 351 338 325 305 278 263 256 249 242 237 237 236 231 227 225 226 224 218 220 221 218 215 211 211 214 213 213 210 205 206 207 199 194 193 197 202 195 183 188 185 113 75 139 303 314 326 317 221 183 177 166 164 163 160 160 160 162 165 171 168 160 160 161 169 175 176 162 151 157 157 150 151
24 23 21 15 2 352 344 337 331 327 329 332 338 340 345 353 350 342 339 332 310 279 260 253 246 239 236 235 232 227 222 230 230 217 216 219 214 213 211 209 213 213 211 209 207 209 207 198 193 194 199 200 198 195 182 178 140 26 338 330 321 317 272 218 182 172 166 162 161 159 159 159 158 160 165 159 157 165 161 165 176 177 164 150 154 154 150 151
20 17 18 16 7 360 351 343 334 325 320 316 317 313 315 319 322 326 323 326 326 312 276 256 248 241 238 234 232 227 216 220 228 217 215 217 210 211 210 209 211 209 208 207 207 211 209 199 191 193 198 199 204 198 176 176 145 21 330 325 316 306 245 210 176 167 164 157 155 156 155 152 148 147 149 147 154 169 161 159 169 172 163 154 154 151 149 151
16 14 12 11 8 4 358 353 345 336 324 311 304 300 303 304 306 310 308 311 313 318 308 271 250 243 239 234 232 226 217 220 226 219 216 214 207 207 209 211 210 207 207 207 207 210 210 201 192 189 188 203 213 195 176 177 133 32 323 307 307 288 203 183 162 159 157 149 149 151 150 147 143 142 143 145 152 163 159 153 160 166 162 157 155 150 149 150
9 10 8 6 5 5 2 358 351 345 334 316 303 297 298 300 302 303 302 303 297 304 310 295 263 247 240 235 230 225 221 222 225 223 218 213 206 204 207 211 210 207 205 206 209 209 208 202 190 181 182 207 205 193 186 143 9 343 319 309 331 95 161 157 152 153 149 143 143 146 150 150 146 141 142 145 150 157 154 147 156 164 161 159 156 152 152 151
359 3 6 3 3 5 3 358 353 348 342 328 314 301 298 299 301 302 301 300 296 294 296 297 281 255 244 235 227 223 223 220 221 224 221 214 205 202 205 209 210 208 204 205 208 207 208 203 185 172 185 210 195 188 181 117 327 299 317 315 53 104 139 145 150 149 145 144 145 149 154 154 150 143 142 147 151 155 150 143 155 162 160 160 157 155 154 153
352 356 2 1 2 5 1 357 351 348 346 339 328 313 305 301 301 302 302 301 297 292 289 289 283 265 251 238 221 220 224 217 218 221 221 216 206 202 202 204 207 206 205 207 207 204 204 196 185 180 189 207 194 189 184 144 196 243 86 131 110 117 144 149 151 149 147 148 150 154 154 155 154 148 152 155 154 156 151 145 155 160 161 161 158 158 157 155
346 349 356 356 359 2 359 353 347 345 343 337 332 321 311 305 303 302 303 304 300 296 290 283 278 269 258 241 219 218 221 214 215 218 220 217 208 203 201 201 204 202 204 207 206 205 201 190 182 182 192 206 191 191 200 176 165 140 112 115 113 125 152 154 151 150 151 150 151 155 153 154 155 156 167 161 156 157 151 148 157 158 161 164 161 161 161 158
342 345 350 351 353 358 354 350 346 345 342 336 329 321 316 310 306 306 305 306 303 299 294 286 278 266 258 245 226 222 219 213 214 215 218 217 210 205 200 200 201 199 198 201 207 206 201 190 174 168 189 202 183 181 216 194 163 131 128 121 126 132 148 153 149 150 155 151 153 154 149 151 155 163 169 163 157 156 152 152 160 160 161 166 164 165 163 160
340 342 344 345 348 352 350 348 347 346 343 337 328 319 317 312 310 309 306 307 306 303 301 295 280 263 256 248 232 224 219 214 212 213 216 214 209 207 203 201 199 198 195 193 202 206 200 190 174 170 181 183 178 183 205 192 172 144 142 136 144 140 142 152 152 154 158 160 161 155 147 151 161 168 166 164 159 156 154 155 161 162 164 168 167 167 166 161
338 340 339 339 342 346 346 347 348 347 343 337 329 322 318 315 315 310 307 309 308 308 312 310 281 257 250 246 232 221 218 214 210 212 214 211 206 205 206 204 199 197 197 194 197 200 196 188 182 180 177 174 185 190 187 191 181 162 154 149 163 157 147 154 159 162 163 166 166 158 154 157 162 167 166 165 163 158 157 158 162 166 167 170 170 170 168 163
336 338 336 337 339 342 344 347 348 347 344 340 334 328 323 320 318 312 315 320 317 320 327 325 274 250 249 242 226 216 217 212 207 209 209 208 203 201 203 206 203 198 198 199 197 196 190 186 186 184 178 180 184 179 185 198 190 182 175 158 170 177 158 159 165 168 168 166 165 163 163 164 165 166 166 168 166 163 161 162 165 168 170 173 173 173 171 167
331 337 335 337 339 340 345 349 349 349 347 345 342 337 334 331 328 326 335 343 336 335 344 345 279 238 228 232 221 213 213 209 206 205 204 204 201 199 200 201 204 201 200 200 199 196 186 183 185 182 180 185 184 183 194 197 194 194 189 158 165 179 169 170 175 175 175 171 168 169 169 169 171 168 168 170 170 168 166 168 170 170 173 175 175 176 177 174
326 331 333 337 340 340 346 350 349 352 352 349 348 348 351 353 351 345 348 350 341 344 2 8 342 179 179 216 209 208 211 208 205 203 200 201 199 198 198 198 200 202 203 202 200 195 186 185 187 182 177 183 194 200 200 199 197 196 191 169 169 171 169 177 187 183 179 180 174 170 175 179 175 170 170 173 174 173 170 173 176 176 177 177 176 179 181 182
320 326 330 335 341 343 347 350 351 357 357 356 1 5 9 12 7 353 349 349 350 15 34 45 79 89 89 181 188 211 212 206 204 201 199 204 202 196 195 196 196 199 202 202 200 193 188 187 187 183 182 188 199 201 206 209 199 192 180 169 171 169 175 181 189 190 183 184 182 171 179 187 180 173 174 176 177 177 177 177 180 182 182 179 179 183 185 186
316 322 325 332 342 347 348 349 355 360 1 12 25 30 26 24 14 357 356 10 38 63 55 62 94 114 147 144 188 220 214 203 201 198 200 206 205 200 197 194 194 196 197 198 200 195 190 187 183 187 195 197 196 197 213 223 198 191 174 169 177 170 176 165 172 192 187 184 187 180 182 189 185 178 176 179 180 180 183 183 184 187 188 184 182 186 188 187
315 318 321 327 340 351 352 349 358 5 12 34 54 56 47 43 27 12 26 52 69 82 81 81 89 104 90 19 355 225 209 197 194 193 199 207 206 203 199 197 194 193 191 193 201 198 191 189 189 191 197 198 197 199 215 217 190 188 173 177 183 162 143 150 156 183 180 177 188 191 190 186 188 186 180 181 184 187 190 188 187 189 191 188 187 189 189 188
314 316 318 325 338 353 357 354 2 12 33 59 66 60 51 47 40 37 59 70 76 84 81 73 65 55 38 28 32 185 188 180 182 186 194 204 200 200 204 199 193 190 186 182 195 196 190 196 199 195 194 197 200 201 206 202 183 183 180 179 185 182 128 160 167 165 167 169 181 190 190 180 185 189 187 187 189 193 195 192 190 191 193 192 191 192 190 189
316 316 317 325 336 351 0 1 7 21 57 72 66 62 54 47 48 55 72 82 86 82 72 63 53 40 42 45 51 137 168 173 178 177 189 196 177 189 209 196 185 191 189 179 185 193 194 203 202 195 193 192 194 196 194 189 174 176 183 172 180 195 204 183 195 191 175 174 172 183 191 189 190 191 194 197 197 200 202 199 196 193 194 194 194 195 193 192
320 315 317 326 335 347 2 7 10 34 72 76 67 66 61 58 63 67 82 91 81 71 70 57 42 44 50 38 48 128 151 168 177 175 177 166 159 187 199 187 182 193 195 187 184 188 196 205 200 198 198 191 192 196 191 188 182 181 195 189 181 192 192 178 208 213 189 181 178 183 199 205 199 194 199 201 199 202 204 202 198 196 195 195 196 198 197 195
326 315 317 326 335 345 2 14 15 54 77 76 71 72 71 67 67 73 90 90 67 74 74 44 42 62 53 31 53 125 151 169 177 187 180 150 151 181 179 180 186 193 196 191 191 193 197 199 196 203 202 190 190 196 189 191 195 189 193 187 177 187 188 172 214 217 193 201 203 191 203 219 217 206 202 202 202 202 204 203 199 197 197 196 196 198 200 199
330 314 318 326 337 343 1 21 23 71 81 75 71 82 86 68 65 76 86 90 76 77 43 23 38 61 48 44 65 113 146 164 172 188 185 154 147 165 177 187 184 192 198 189 193 200 205 203 197 201 198 188 192 198 191 193 198 193 181 159 153 173 184 188 220 208 188 219 224 203 205 214 211 213 209 206 206 205 204 204 201 199 198 198 197 197 199 199
328 312 321 330 336 340 358 28 38 88 86 72 68 86 86 50 62 79 82 110 86 56 16 0 357 20 46 69 80 96 128 162 177 178 178 167 156 158 185 193 180 191 197 188 195 205 215 218 207 197 192 190 195 198 196 191 183 191 187 164 151 155 168 184 208 200 190 211 215 205 213 203 183 206 217 212 211 211 209 206 203 203 202 200 199 199 199 199
321 313 327 331 332 336 353 38 69 106 96 70 66 79 64 44 57 74 77 143 73 37 11 350 341 36 62 100 101 78 112 166 177 176 181 177 163 154 171 190 190 193 185 180 196 206 207 207 199 191 189 194 198 200 203 193 179 191 188 171 171 170 157 160 189 208 210 212 201 204 221 248 189 196 218 218 215 218 216 211 204 204 206 203 201 201 200 200
313 317 330 329 329 332 1 62 92 117 104 75 72 78 77 64 56 46 331 17 50 16 357 353 346 45 40 122 121 75 90 147 166 174 174 171 163 156 171 196 199 197 187 180 189 205 198 185 185 189 189 196 200 203 204 194 184 189 182 167 169 183 177 175 201 221 230 230 220 200 210 242 203 181 218 222 219 223 219 215 210 205 205 205 204 204 202 201
310 320 329 328 324 329 39 88 110 123 108 83 82 85 100 85 47 24 301 23 40 360 352 13 342 344 39 118 118 113 125 131 163 172 161 163 163 158 190 200 181 185 193 192 196 219 198 187 180 184 191 199 199 200 203 197 191 185 180 169 155 163 183 199 216 224 233 239 232 198 197 220 200 185 215 221 221 227 222 217 214 209 207 205 204 205 204 203
310 321 330 331 322 357 97 116 123 124 109 92 85 76 78 68 8 298 301 39 37 12 8 35 26 350 71 142 155 136 137 127 142 163 157 164 166 155 186 182 167 179 191 197 206 209 186 189 183 178 187 197 195 196 201 202 198 187 178 167 147 136 181 212 222 223 234 236 218 188 194 217 220 180 207 227 229 230 223 219 216 211 208 206 205 205 206 206
313 330 339 332 325 117 129 133 130 123 112 103 85 55 51 58 347 317 24 43 36 29 27 41 46 52 85 146 162 143 149 141 131 164 165 171 176 168 179 170 166 184 189 199 207 197 182 191 190 188 187 180 180 188 192 197 196 188 183 179 165 101 241 221 211 216 236 220 168 176 191 212 230 184 190 220 205 198 214 222 220 214 210 206 204 204 205 206
323 349 348 346 94 137 143 141 135 123 105 104 77 47 35 336 5 17 29 12 346 24 34 52 35 51 107 121 143 141 164 164 150 181 182 185 188 183 195 194 180 193 201 201 203 202 199 199 192 194 196 185 178 182 187 192 194 192 192 188 181 240 270 226 208 216 234 205 149 176 193 211 233 215 194 208 207 204 212 225 227 217 212 208 204 203 204 204
346 15 20 89 129 145 147 143 137 119 85 69 67 54 354 285 30 43 11 357 3 23 36 63 39 42 112 127 148 150 172 174 167 187 184 191 196 189 205 213 189 213 223 196 191 197 201 204 200 196 199 197 192 185 185 190 195 198 197 187 180 184 236 230 221 225 232 213 178 176 197 219 226 217 220 229 247 250 227 227 224 212 212 212 208 204 204 204
33 62 114 122 140 145 139 138 128 107 76 68 75 11 297 312 44 40 357 9 11 5 12 48 56 54 74 130 167 166 163 169 174 185 186 195 200 192 199 201 190 217 235 200 198 206 201 203 205 202 201 200 198 197 192 189 196 202 200 193 188 187 202 228 230 226 228 215 192 184 203 224 203 204 217 220 233 240 221 219 214 205 206 210 211 208 206 204
91 124 132 130 139 139 134 132 119 96 81 82 87 264 292 59 54 4 359 12 354 344 339 7 71 75 86 100 169 177 161 165 175 180 188 195 199 196 193 191 192 206 224 213 205 211 216 218 203 198 201 200 199 202 199 190 197 202 202 205 204 197 204 226 240 240 243 231 191 195 219 242 213 216 222 202 214 241 239 212 208 206 201 203 209 210 206 204
124 133 135 140 140 140 145 141 121 80 84 90 96 33 73 66 45 11 9 11 345 334 308 254 204 201 123 93 130 186 174 169 170 171 171 170 174 178 180 195 201 201 224 230 211 202 220 224 192 188 200 203 202 204 202 197 194 197 203 210 212 208 213 226 230 232 245 253 212 211 229 238 229 232 246 259 252 251 251 214 209 209 204 203 206 206 203 202
133 136 141 148 144 150 159 150 142 87 75 85 127 97 92 71 47 36 24 26 8 340 316 268 227 237 153 123 130 179 179 162 165 175 172 167 165 144 155 195 200 193 210 226 227 226 232 224 193 189 201 202 203 207 207 209 205 192 203 210 208 212 225 231 228 219 228 241 219 214 229 233 221 220 246 257 240 242 248 218 211 210 208 207 204 201 201 200
149 147 143 146 148 151 152 146 148 102 71 86 121 112 104 80 62 68 48 38 30 0 330 302 252 236 241 175 139 171 189 181 176 183 180 178 178 157 145 152 153 177 187 193 211 230 241 240 201 187 202 199 196 203 206 211 213 207 212 212 202 206 216 218 226 227 222 229 221 213 225 233 230 229 240 218 204 228 256 227 217 213 211 212 208 204 202 201
155 147 154 159 156 154 152 149 130 94 94 108 120 119 104 81 59 57 49 38 29 4 338 343 345 214 230 229 168 186 214 216 186 180 187 178 171 166 139 114 115 90 126 171 203 225 226 240 209 173 190 191 187 199 205 203 206 212 222 212 204 213 220 215 222 232 232 237 231 216 218 227 227 219 211 213 225 249 270 258 225 214 210 213 213 209 204 203
153 145 184 180 165 167 161 138 95 87 120 128 118 122 110 88 46 36 38 36 34 18 6 16 46 204 160 186 187 182 204 204 172 170 198 175 161 188 173 111 108 84 80 144 197 225 219 235 225 163 173 187 189 199 204 199 199 203 210 209 205 214 224 223 225 229 233 242 233 226 229 217 208 213 221 233 246 253 260 265 217 207 207 206 207 205 203 205
162 156 203 194 180 185 164 116 108 114 122 132 123 131 125 90 53 20 21 28 27 15 22 31 41 57 68 195 185 177 167 172 166 155 182 171 163 218 244 267 185 106 67 80 203 243 227 230 237 193 180 197 200 199 202 205 203 200 204 210 208 210 215 221 223 221 226 235 235 245 249 196 182 222 239 245 247 246 249 249 204 200 201 194 190 193 196 202
171 190 214 200 193 194 166 126 179 145 118 155 147 152 154 86 38 346 351 10 9 2 21 30 37 47 23 235 157 174 163 167 183 171 165 170 175 192 223 257 252 177 111 36 256 267 243 224 238 226 203 202 198 196 198 200 200 202 207 211 212 211 212 217 222 215 219 227 232 245 252 229 235 260 255 243 236 232 241 231 194 196 198 187 180 185 191 199
190 214 216 205 205 200 182 195 204 162 140 165 153 151 145 77 19 353 337 314 313 353 1 7 33 45 39 117 158 184 173 165 178 174 164 165 181 194 204 228 247 236 191 289 307 290 265 231 231 228 221 211 195 201 202 195 194 204 211 212 215 216 215 221 230 228 223 223 222 231 238 233 245 260 253 239 226 217 219 203 192 197 199 186 177 180 190 200
206 215 215 210 215 210 204 216 194 167 172 164 152 156 141 84 10 21 16 248 239 296 327 316 288 23 48 81 124 206 196 179 179 179 171 163 185 210 213 222 239 227 189 223 328 314 297 261 229 217 211 198 190 197 198 197 201 208 211 211 213 215 216 224 232 233 231 226 219 227 238 227 233 252 251 233 223 218 217 202 200 203 199 190 183 180 181 191
212 220 223 218 218 217 214 214 199 182 192 184 174 183 187 279 324 7 22 296 245 233 222 263 268 251 57 69 82 178 200 196 204 196 182 169 190 212 218 220 229 214 198 241 323 336 317 286 232 222 218 198 186 185 186 192 200 206 209 209 209 211 214 222 225 223 229 227 219 225 233 220 227 248 249 232 220 217 242 253 219 205 197 191 190 188 179 169
210 217 224 223 222 220 216 214 207 204 209 201 197 209 214 243 301 339 9 353 262 223 224 252 272 304 264 141 106 148 192 205 206 191 189 193 202 218 209 199 216 217 206 226 297 10 31 34 79 215 233 201 157 165 172 179 188 197 203 208 211 214 216 220 225 226 226 226 224 226 230 238 247 253 254 240 215 193 235 264 237 201 196 192 192 192 186 178
211 211 211 212 216 219 221 221 215 215 215 206 211 227 226 225 274 321 351 342 292 260 248 253 248 241 243 202 181 189 173 185 193 183 189 202 207 220 212 179 210 212 199 213 244 342 359 26 82 87 114 115 109 137 155 164 175 184 192 201 210 215 217 217 225 233 230 227 231 226 224 238 254 253 256 248 219 188 204 249 240 204 197 193 191 193 191 191
214 218 214 209 209 212 216 221 220 219 215 211 223 234 230 227 246 293 320 322 315 276 238 250 248 227 233 232 219 219 193 180 191 191 188 194 201 221 252 298 231 216 202 213 228 260 294 252 107 93 104 106 106 120 127 138 148 148 162 183 197 210 215 217 227 238 231 227 238 226 213 219 237 245 252 254 232 202 195 219 228 208 198 189 184 189 194 197
216 222 222 217 216 215 216 223 222 213 209 214 227 226 221 232 243 264 298 317 310 276 223 218 241 236 235 244 237 224 220 200 195 204 199 195 200 206 221 245 266 239 221 215 218 230 240 204 141 112 111 105 101 113 114 115 124 116 113 135 154 183 194 197 216 224 219 222 234 233 215 211 221 240 249 253 239 214 199 199 202 198 194 187 181 183 189 197
219 221 222 221 223 224 226 228 218 207 214 219 222 227 225 222 229 268 303 308 274 271 220 204 239 242 238 242 237 227 226 213 199 205 199 186 197 200 197 207 238 240 224 217 213 220 226 196 151 128 131 120 103 113 123 117 112 101 95 107 112 144 181 189 202 210 208 212 218 223 228 224 226 237 244 248 237 215 201 193 189 189 188 185 183 184 190 197
222 221 219 218 224 225 225 225 214 208 218 217 218 235 231 210 216 265 312 317 248 206 197 209 235 248 247 235 220 222 226 215 207 207 198 193 203 201 202 218 238 241 219 219 214 215 226 219 191 174 159 143 122 113 131 138 121 93 86 104 103 98 154 181 189 194 192 190 204 213 214 213 226 230 233 240 231 202 194 192 187 185 184 180 181 187 193 199
224 221 218 216 223 224 220 220 217 214 217 217 220 228 209 203 225 263 315 322 317 205 217 224 204 193 223 196 196 214 218 206 205 208 203 210 221 222 234 249 259 269 226 219 215 213 220 222 212 212 198 161 143 67 113 176 162 91 62 79 89 82 100 126 129 163 179 175 180 196 198 211 229 232 232 239 223 186 182 187 185 182 181 179 180 187 194 193